When you browse on this site, cookies collect data to enhance your experience and personalize the content and advertising you see.
Visit our Privacy Policy to learn more. By continuing to use the site, you agree to this use of cookies and data.
  • In Austria
  • List of Countries
  • For 7 days
  • Water Temperature
  • Satellite Maps
  • Weather Map
  • News
  • Weather Widgets
  • user-avatar
    Login

    Hourly Weather Neuquén

    Today, 23 January, Wednesday

    Time Temperature Precipitation Wind Pressure Humidity
    00:00 +25°C° 0 mm 5 mps 733 mmHg 18%
    01:00 +23°C° 0 mm 5 mps 733 mmHg 19%
    02:00 +23°C° 0 mm 5 mps 733 mmHg 20%
    03:00 +22°C° 0 mm 4 mps 733 mmHg 21%
    04:00 +21°C° 0 mm 4 mps 734 mmHg 22%
    05:00 +22°C° 0 mm 4 mps 734 mmHg 22%
    06:00 +23°C° 0 mm 4 mps 734 mmHg 23%
    07:00 +25°C° 0 mm 4 mps 735 mmHg 23%
    08:00 +27°C° 0 mm 3 mps 734 mmHg 20%
    09:00 +29°C° 0 mm 2 mps 734 mmHg 16%
    10:00 +30°C° 0 mm 1 mps 734 mmHg 13%
    11:00 +32°C° 0 mm 2 mps 734 mmHg 12%
    12:00 +34°C° 0 mm 2 mps 733 mmHg 11%
    13:00 +36°C° 0 mm 3 mps 733 mmHg 10%
    14:00 +36°C° 0 mm 3 mps 732 mmHg 9%
    15:00 +37°C° 0 mm 3 mps 731 mmHg 8%
    16:00 +38°C° 0 mm 3 mps 731 mmHg 8%
    17:00 +37°C° 0 mm 2 mps 730 mmHg 9%
    18:00 +35°C° 0 mm 2 mps 730 mmHg 10%
    19:00 +33°C° 0 mm 1 mps 730 mmHg 10%
    20:00 +34°C° 0 mm 2 mps 730 mmHg 13%
    21:00 +32°C° 0 mm 2 mps 730 mmHg 15%
    22:00 +33°C° 0 mm 3 mps 730 mmHg 17%
    23:00 +32°C° 0 mm 4 mps 730 mmHg 28%

    Tomorrow, 24 January, Thursday

    Time Temperature Precipitation Wind Pressure Humidity
    00:00 +32°C° 0 mm 5 mps 730 mmHg 39%
    01:00 +32°C° 0 mm 6 mps 730 mmHg 50%
    02:00 +30°C° 0 mm 5 mps 729 mmHg 54%
    03:00 +30°C° 0 mm 5 mps 729 mmHg 58%
    04:00 +29°C° 0 mm 4 mps 729 mmHg 62%
    05:00 +30°C° 0.2 mm 4 mps 729 mmHg 60%
    06:00 +32°C° 0.2 mm 4 mps 729 mmHg 58%
    07:00 +33°C° 0.2 mm 4 mps 729 mmHg 56%
    08:00 +35°C° 0 mm 4 mps 729 mmHg 50%
    09:00 +36°C° 0 mm 4 mps 729 mmHg 44%
    10:00 +38°C° 0 mm 4 mps 729 mmHg 38%
    11:00 +38°C° 0 mm 4 mps 728 mmHg 32%
    12:00 +40°C° 0 mm 4 mps 728 mmHg 27%
    13:00 +41°C° 0 mm 4 mps 728 mmHg 22%
    14:00 +41°C° 0 mm 4 mps 727 mmHg 17%
    15:00 +42°C° 0 mm 5 mps 726 mmHg 12%
    16:00 +42°C° 0 mm 5 mps 726 mmHg 7%
    17:00 +40°C° 0 mm 4 mps 726 mmHg 8%
    18:00 +38°C° 0 mm 3 mps 726 mmHg 9%
    19:00 +36°C° 0 mm 2 mps 726 mmHg 9%
    20:00 +35°C° 0 mm 4 mps 727 mmHg 10%
    21:00 +34°C° 0 mm 6 mps 727 mmHg 10%
    22:00 +33°C° 0 mm 9 mps 728 mmHg 11%
    23:00 +32°C° 0 mm 8 mps 728 mmHg 12%

    Day after tomorrow, 25 January, Friday

    Time Temperature Precipitation Wind Pressure Humidity
    00:00 +29°C° 0 mm 7 mps 728 mmHg 13%
    01:00 +28°C° 0 mm 5 mps 728 mmHg 14%
    02:00 +27°C° 0 mm 6 mps 728 mmHg 15%
    03:00 +27°C° 0 mm 6 mps 728 mmHg 16%
    04:00 +26°C° 0 mm 6 mps 728 mmHg 17%
    05:00 +27°C° 0 mm 7 mps 728 mmHg 17%
    06:00 +27°C° 0 mm 7 mps 729 mmHg 17%
    07:00 +28°C° 0 mm 7 mps 729 mmHg 16%
    08:00 +31°C° 0 mm 8 mps 729 mmHg 15%
    09:00 +32°C° 0 mm 9 mps 730 mmHg 13%
    10:00 +34°C° 0 mm 10 mps 730 mmHg 12%
    11:00 +36°C° 0 mm 10 mps 730 mmHg 10%
    12:00 +38°C° 0 mm 10 mps 730 mmHg 8%
    13:00 +40°C° 0 mm 10 mps 730 mmHg 6%
    14:00 +39°C° 0 mm 10 mps 730 mmHg 7%
    15:00 +39°C° 0 mm 11 mps 730 mmHg 8%
    16:00 +38°C° 0 mm 12 mps 729 mmHg 10%
    17:00 +36°C° 0 mm 12 mps 730 mmHg 12%
    18:00 +33°C° 0 mm 12 mps 731 mmHg 15%
    19:00 +31°C° 0 mm 12 mps 731 mmHg 18%
    20:00 +28°C° 0 mm 11 mps 732 mmHg 18%
    21:00 +27°C° 0 mm 9 mps 733 mmHg 18%
    22:00 +26°C° 0 mm 8 mps 734 mmHg 18%
    23:00 +24°C° 0 mm 7 mps 735 mmHg 18%

    26 January, Saturday

    Time Temperature Precipitation Wind Pressure Humidity
    00:00 +23°C° 0 mm 6 mps 735 mmHg 18%
    01:00 +23°C° 0 mm 6 mps 736 mmHg 17%
    02:00 +22°C° 0 mm 6 mps 736 mmHg 20%
    03:00 +21°C° 0 mm 7 mps 737 mmHg 24%
    04:00 +20°C° 0 mm 8 mps 737 mmHg 27%
    05:00 +20°C° 0 mm 7 mps 737 mmHg 27%
    06:00 +20°C° 0 mm 7 mps 738 mmHg 28%
    07:00 +21°C° 0 mm 7 mps 738 mmHg 28%
    08:00 +22°C° 0 mm 7 mps 737 mmHg 28%
    09:00 +24°C° 0 mm 6 mps 737 mmHg 28%
    10:00 +26°C° 0 mm 5 mps 737 mmHg 28%
    11:00 +28°C° 0 mm 5 mps 736 mmHg 25%
    12:00 +29°C° 0 mm 5 mps 735 mmHg 22%
    13:00 +32°C° 0 mm 5 mps 735 mmHg 20%
    14:00 +32°C° 0 mm 5 mps 734 mmHg 19%
    15:00 +33°C° 0 mm 5 mps 733 mmHg 18%
    16:00 +34°C° 0 mm 4 mps 733 mmHg 17%
    17:00 +33°C° 0 mm 5 mps 733 mmHg 19%
    18:00 +33°C° 0 mm 6 mps 732 mmHg 21%
    19:00 +32°C° 0 mm 6 mps 732 mmHg 22%
    20:00 +30°C° 0 mm 6 mps 732 mmHg 25%
    21:00 +29°C° 0 mm 7 mps 732 mmHg 29%
    22:00 +29°C° 0 mm 7 mps 732 mmHg 32%
    23:00 +28°C° 0 mm 6 mps 732 mmHg 39%

    27 January, Sunday

    Time Temperature Precipitation Wind Pressure Humidity
    00:00 +28°C° 0 mm 5 mps 732 mmHg 46%
    01:00 +28°C° 0 mm 5 mps 731 mmHg 53%
    02:00 +27°C° 0.5 mm 4 mps 731 mmHg 60%
    03:00 +27°C° 0.5 mm 4 mps 730 mmHg 68%
    04:00 +26°C° 0.5 mm 4 mps 730 mmHg 75%
    05:00 +27°C° 0.4 mm 5 mps 730 mmHg 73%
    06:00 +28°C° 0.4 mm 5 mps 731 mmHg 71%
    07:00 +29°C° 0.4 mm 5 mps 731 mmHg 69%
    08:00 +30°C° 0.2 mm 5 mps 731 mmHg 61%
    09:00 +33°C° 0.2 mm 4 mps 730 mmHg 53%
    10:00 +34°C° 0.2 mm 3 mps 730 mmHg 45%
    11:00 +35°C° 0 mm 4 mps 730 mmHg 34%
    12:00 +37°C° 0 mm 5 mps 729 mmHg 23%
    13:00 +39°C° 0 mm 6 mps 729 mmHg 12%
    14:00 +39°C° 0 mm 6 mps 728 mmHg 10%
    15:00 +40°C° 0 mm 6 mps 728 mmHg 8%
    16:00 +40°C° 0 mm 6 mps 727 mmHg 5%
    17:00 +39°C° 0 mm 6 mps 728 mmHg 7%
    18:00 +38°C° 0 mm 6 mps 728 mmHg 8%
    19:00 +36°C° 0 mm 6 mps 728 mmHg 9%
    20:00 +34°C° 0 mm 7 mps 728 mmHg 10%
    21:00 +33°C° 0 mm 8 mps 729 mmHg 11%
    22:00 +31°C° 0 mm 9 mps 730 mmHg 12%
    23:00 +29°C° 0 mm 9 mps 730 mmHg 14%

    28 January, Monday

    Time Temperature Precipitation Wind Pressure Humidity
    00:00 +27°C° 0 mm 9 mps 730 mmHg 16%
    01:00 +26°C° 0 mm 9 mps 730 mmHg 17%
    02:00 +24°C° 0 mm 9 mps 730 mmHg 19%
    03:00 +24°C° 0 mm 8 mps 730 mmHg 20%
    04:00 +23°C° 0 mm 8 mps 730 mmHg 22%
    05:00 +24°C° 0 mm 7 mps 730 mmHg 21%
    06:00 +26°C° 0 mm 6 mps 731 mmHg 21%
    07:00 +27°C° 0 mm 6 mps 731 mmHg 21%
    08:00 +28°C° 0 mm 5 mps 731 mmHg 22%
    09:00 +29°C° 0 mm 3 mps 731 mmHg 23%
    10:00 +30°C° 0 mm 2 mps 730 mmHg 24%
    11:00 +31°C° 0 mm 2 mps 730 mmHg 21%
    12:00 +33°C° 0 mm 1 mps 729 mmHg 18%
    13:00 +34°C° 0 mm 1 mps 728 mmHg 15%
    14:00 +35°C° 0 mm 1 mps 728 mmHg 14%
    15:00 +37°C° 0 mm 2 mps 727 mmHg 12%
    16:00 +37°C° 0 mm 3 mps 726 mmHg 11%
    17:00 +37°C° 0 mm 2 mps 726 mmHg 11%
    18:00 +36°C° 0 mm 2 mps 726 mmHg 12%
    19:00 +34°C° 0 mm 1 mps 726 mmHg 12%
    20:00 +33°C° 0 mm 1 mps 726 mmHg 12%
    21:00 +34°C° 0 mm 2 mps 726 mmHg 12%
    22:00 +32°C° 0 mm 2 mps 726 mmHg 12%
    23:00 +32°C° 0 mm 5 mps 726 mmHg 18%
    Show more